Weather History for Aspen, CO

Change the Weather History Date:

Friday, August 23, 2013

  Actual Average Record
Temperature  
Mean Temperature 63 °F 60 °F  
Max Temperature 79 °F 76 °F 86 °F (2011)
Min Temperature 46 °F 45 °F 38 °F (1990)
Degree Days  
Heating Degree Days 2 5  
Month to date heating degree days 92 78  
Since 1 June heating degree days 270 378  
Since 1 July heating degree days 124 149  
Cooling Degree Days 0 0  
Month to date cooling degree days 4 9  
Year to date cooling degree days 60 38  
Since 1 June cooling degree days 60 38  
Growing Degree Days 12 (Base 50)    
Moisture  
Dew Point 49 °F    
Average Humidity 65    
Maximum Humidity 100    
Minimum Humidity 30    
Precipitation  
Precipitation 0.10 in 0.04 in 0.82 in (2012)
Month to date precipitation 1.22 1.26  
Year to date precipitation 9.57 11.04  
Sea Level Pressure  
Sea Level Pressure 29.97 in    
Wind  
Wind Speed 4 mph (West)    
Max Wind Speed 17 mph    
Max Gust Speed 25 mph    
Visibility 10 miles    
Events Rain , Thunderstorm    
T = Trace of Precipitation, MM = Missing Value Source: NWS Daily Summary

Daily Weather History Graph

Daily Weather History Graph

Search for Another Location

Airport:

Trip Planner

Search our weather history database for the weather conditions in past years. The results will help you decide how hot, cold, wet, or windy it might be!

Date:

Astronomy

Aug. 23, 2013 Rise Set
Actual Time 6:28 AM MDT 7:51 PM MDT
Civil Twilight 6:00 AM MDT 8:19 PM MDT
Nautical Twilight 5:26 AM MDT 8:52 PM MDT
Astronomical Twilight 4:51 AM MDT 9:27 PM MDT
Moon 9:13 PM MDT (8/23) 9:24 AM MDT (8/23)
Length of Visible Light 14h 19m
Length of Day
13h 23m
Waning Gibbous, 91% of the Moon is Illuminated
Aug 23
Waning Gibbous
Aug 28
Last Quarter
Sep 5
New
Sep 12
First Quarter
Sep 19
Full

Hourly Weather History & Observations

Time (MDT) Temp. Dew Point Humidity Pressure Visibility Wind Dir Wind Speed Gust Speed Precip Events Conditions
12:53 AM 54.0 °F 53.1 °F 97% 29.97 in 10.0 mi SW 5.8 mph - N/A   Mostly Cloudy
1:53 AM 52.0 °F 51.1 °F 97% 29.97 in 10.0 mi Calm Calm - N/A   Clear
2:53 AM 51.1 °F 50.0 °F 96% 29.97 in 10.0 mi Calm Calm - N/A   Unknown
3:53 AM 51.1 °F 48.9 °F 92% 29.98 in 10.0 mi SSW 5.8 mph - N/A   Clear
4:53 AM 48.9 °F 46.9 °F 93% 29.97 in 10.0 mi SSW 3.5 mph - N/A   Clear
5:53 AM 46.0 °F 45.0 °F 96% 29.98 in 10.0 mi Calm Calm - N/A   Clear
6:53 AM 48.9 °F 46.9 °F 93% 29.98 in 10.0 mi SSW 4.6 mph - N/A   Clear
7:53 AM 51.1 °F 48.0 °F 89% 30.04 in 10.0 mi Calm Calm - N/A   Clear
8:53 AM 57.9 °F 48.0 °F 70% 30.01 in 10.0 mi North 3.5 mph - N/A   Clear
9:53 AM 63.0 °F 50.0 °F 63% 29.99 in 10.0 mi North 6.9 mph - N/A   Clear
10:53 AM 68.0 °F 48.0 °F 49% 29.95 in 10.0 mi North 5.8 mph - N/A   Partly Cloudy
11:53 AM 70.0 °F 50.0 °F 49% 29.94 in 10.0 mi Calm Calm - N/A   Scattered Clouds
12:53 PM 75.9 °F 45.0 °F 33% 29.88 in 10.0 mi Calm Calm - N/A   Scattered Clouds
1:53 PM 73.9 °F 45.0 °F 35% 29.88 in 10.0 mi WSW 5.8 mph - N/A   Overcast
2:53 PM 73.9 °F 46.9 °F 38% 29.86 in 10.0 mi North 6.9 mph - 0.00 in   Scattered Clouds
3:53 PM 78.1 °F 44.1 °F 30% 29.82 in 10.0 mi Variable 5.8 mph - N/A   Scattered Clouds
4:53 PM 72.0 °F 45.0 °F 38% 29.88 in 10.0 mi SW 6.9 mph - N/A   Mostly Cloudy
5:53 PM 64.0 °F 46.0 °F 52% 29.94 in 10.0 mi North 8.1 mph - N/A   Scattered Clouds
6:53 PM 63.0 °F 48.0 °F 58% 29.93 in 10.0 mi North 4.6 mph - N/A   Mostly Cloudy
7:53 PM 57.0 °F 51.1 °F 81% 29.96 in 10.0 mi SW 6.9 mph - 0.05 in Rain Light Rain
8:13 PM 55.4 °F 51.8 °F 88% 30.26 in 4.0 mi Calm Calm - 0.04 in Rain , Thunderstorm Rain
8:53 PM 55.0 °F 53.1 °F 93% 29.98 in 10.0 mi West 5.8 mph - 0.05 in Rain , Thunderstorm Light Rain
9:05 PM 55.4 °F 53.6 °F 94% 30.29 in 10.0 mi NE 3.5 mph - 0.00 in Rain Light Rain
9:53 PM 55.9 °F 52.0 °F 87% 29.97 in 10.0 mi SE 3.5 mph - 0.00 in   Overcast
10:53 PM 52.0 °F 50.0 °F 93% 29.95 in 10.0 mi SSW 6.9 mph - N/A   Partly Cloudy
11:53 PM 51.1 °F 50.0 °F 96% 29.95 in 10.0 mi Calm Calm - N/A   Clear